DW1174 Weather Reports


time (UTC)temp
C
wind
direction
speed
KPH
gust
KPH
rain 1hr
cm
rain 24hr
cm
rain mn
cm
humidity
%
barometer
mb
20260508035952 7 294 0.0 0.0 0.00 0.00 0.00 74 1010.3
20260508035201 7 295 0.0 0.0 0.00 0.00 0.00 74 1010.3
20260508034625 7 295 0.0 0.0 0.00 0.00 0.00 75 1010.3
20260508034055 7 295 0.0 0.0 0.00 0.00 0.00 75 1010.3
20260508033523 7 295 0.0 0.0 0.00 0.00 0.00 74 1010.3
20260508033007 6 295 0.0 0.0 0.00 0.00 0.00 74 1010.2
20260508032709 6 295 0.0 0.0 0.00 0.00 0.00 76 1010.1
20260508031911 6 296 0.0 0.0 0.00 0.00 0.00 76 1010.0
20260508031356 6 296 0.0 0.0 0.00 0.00 0.00 76 1010.1
20260508030818 6 296 0.0 0.0 0.00 0.00 0.00 79 1010.1
20260508030243 6 296 0.0 0.0 0.00 0.00 0.00 81 1010.0
20260508025737 6 296 0.0 0.0 0.00 0.00 0.00 81 1010.1
20260508025235 5 296 0.0 0.0 0.00 0.00 0.00 81 1010.1
20260508024657 5 296 0.0 0.0 0.00 0.00 0.00 81 1010.1
20260508024134 5 296 0.0 0.0 0.00 0.00 0.00 81 1010.2
20260508023553 5 296 0.0 0.0 0.00 0.00 0.00 81 1010.2
20260508023045 6 296 0.0 0.0 0.00 0.00 0.00 81 1010.2
20260508022547 6 296 0.0 0.0 0.00 0.00 0.00 80 1010.1
20260508022233 6 296 0.0 0.0 0.00 0.00 0.00 79 1010.2
20260508021453 6 296 0.0 0.0 0.00 0.00 0.00 78 1010.3
20260508020957 6 296 0.0 0.0 0.00 0.00 0.00 77 1010.1
20260508020435 6 296 0.0 0.0 0.00 0.00 0.00 76 1010.1
20260508020132 6 296 0.0 0.0 0.00 0.00 0.00 75 1010.1
20260508015329 7 296 0.0 0.0 0.00 0.00 0.00 74 1010.1
20260508014803 7 296 0.0 0.0 0.00 0.00 0.00 72 1010.1
20260508014305 7 296 0.0 0.0 0.00 0.00 0.00 71 1010.1
20260508013747 7 296 0.0 0.0 0.00 0.00 0.00 70 1010.2
20260508013243 8 296 0.0 0.0 0.00 0.00 0.00 68 1010.1
20260508012922 8 296 0.0 0.0 0.00 0.00 0.00 68 1010.1
20260508012137 8 296 0.0 0.0 0.00 0.00 0.00 67 1010.2
20260508011858 8 296 0.0 0.0 0.00 0.00 0.00 66 1010.2
20260508011320 8 296 0.0 0.0 0.00 0.00 0.00 66 1010.2
20260508010459 8 296 0.0 0.0 0.00 0.00 0.00 64 1010.2
20260508005935 9 296 0.0 0.0 0.00 0.00 0.00 64 1010.3
20260508005435 9 296 0.0 0.0 0.00 0.00 0.00 63 1010.3
20260508004859 9 296 0.0 0.0 0.00 0.00 0.00 62 1010.3
20260508004621 9 296 0.0 0.0 0.00 0.00 0.00 61 1010.2
20260508003816 10 296 0.0 0.0 0.00 0.00 0.00 60 1010.2
20260508003253 10 296 0.0 1.6 0.00 0.00 0.00 60 1010.3
20260508002745 10 296 0.0 1.6 0.00 0.00 0.00 59 1010.2
20260508002231 10 273 0.0 0.0 0.00 0.00 0.00 58 1010.3
20260508001707 10 274 0.0 4.8 0.00 0.00 0.00 57 1010.3
20260508001200 10 273 0.0 11.3 0.00 0.00 0.00 56 1010.3
20260508001006 10 274 0.0 11.3 0.00 0.00 0.00 55 1010.3
20260507235625 10 242 1.6 4.8 0.00 0.00 0.00 54 1010.0
20260507235106 10 242 1.6 4.8 0.00 0.00 0.00 53 1010.0
20260507234608 11 293 1.6 9.7 0.00 0.00 0.00 53 1010.0
20260507234036 11 355 1.6 9.7 0.00 0.00 0.00 54 1010.1
20260507233529 11 299 1.6 8.0 0.00 0.00 0.00 53 1010.1
20260507233026 11 244 1.6 6.4 0.00 0.00 0.00 53 1010.1
20260507232524 11 237 1.6 4.8 0.00 0.00 0.00 53 1010.1
20260507232007 11 335 1.6 11.3 0.00 0.00 0.00 52 1010.2
20260507231512 11 296 1.6 11.3 0.00 0.00 0.00 52 1010.1
20260507231002 11 304 1.6 8.0 0.00 0.00 0.00 52 1010.2
20260507230503 11 294 4.8 17.7 0.00 0.00 0.00 51 1010.2
20260507225933 11 192 4.8 17.7 0.00 0.00 0.00 51 1010.2
20260507225654 11 293 3.2 14.5 0.00 0.00 0.00 52 1010.3
20260507225122 11 255 1.6 14.5 0.00 0.00 0.00 53 1010.2
20260507224403 11 229 1.6 9.7 0.00 0.00 0.00 53 1010.3
20260507223832 11 294 1.6 9.7 0.00 0.00 0.00 54 1010.3
20260507223303 11 258 3.2 8.0 0.00 0.00 0.00 53 1010.3
20260507222756 11 341 4.8 11.3 0.00 0.00 0.00 52 1010.3
20260507222247 11 286 3.2 14.5 0.00 0.00 0.00 53 1010.2
20260507221748 11 261 1.6 14.5 0.00 0.00 0.00 53 1010.2
20260507221219 11 254 3.2 17.7 0.00 0.00 0.00 56 1010.3
20260507220943 11 234 4.8 17.7 0.00 0.00 0.00 54 1010.2
20260507220139 12 208 3.2 9.7 0.00 0.00 0.00 53 1010.3
20260507215620 12 257 3.2 17.7 0.00 0.00 0.00 55 1010.4
20260507215109 12 255 4.8 17.7 0.00 0.00 0.00 53 1010.2
20260507214559 12 248 3.2 14.5 0.00 0.00 0.00 53 1010.3
20260507214056 11 250 4.8 14.5 0.00 0.00 0.00 54 1010.1
20260507213746 11 17 4.8 17.7 0.00 0.00 0.00 53 1010.0
20260507213001 12 334 4.8 12.9 0.00 0.00 0.00 52 1010.1
20260507212431 12 313 3.2 11.3 0.00 0.00 0.00 54 1010.0
20260507212116 11 309 4.8 11.3 0.00 0.00 0.00 54 1009.8
20260507211403 11 304 3.2 11.3 0.00 0.00 0.00 56 1009.9
20260507210836 11 322 1.6 8.0 0.00 0.00 0.00 57 1009.8
20260507210338 11 286 1.6 9.7 0.00 0.00 0.00 57 1009.8
20260507210043 11 325 1.6 9.7 0.00 0.00 0.00 58 1009.8
20260507205234 11 355 1.6 14.5 0.00 0.00 0.00 57 1009.8
20260507204727 11 252 1.6 8.0 0.00 0.00 0.00 58 1010.0
20260507204230 11 266 1.6 6.4 0.00 0.00 0.00 57 1009.9
20260507203703 11 321 1.6 4.8 0.00 0.00 0.00 59 1009.8
20260507203207 11 292 4.8 11.3 0.00 0.00 0.00 57 1009.8
20260507202619 12 296 3.2 12.9 0.00 0.00 0.00 54 1010.0
20260507202110 12 309 3.2 12.9 0.00 0.00 0.00 55 1010.0
20260507201604 12 330 3.2 12.9 0.00 0.00 0.00 54 1009.9
20260507201105 12 304 3.2 8.0 0.00 0.00 0.00 53 1009.8
20260507200603 12 319 1.6 11.3 0.00 0.00 0.00 54 1010.0
20260507200303 12 278 3.2 20.9 0.00 0.00 0.00 53 1010.0
20260507195526 12 180 4.8 20.9 0.00 0.00 0.00 54 1010.0
20260507195030 11 325 3.2 9.7 0.00 0.00 0.00 52 1010.0
20260507194520 12 315 1.6 9.7 0.00 0.00 0.00 52 1010.2
20260507194018 12 300 1.6 8.0 0.00 0.00 0.00 51 1010.2
20260507193510 11 292 3.2 8.0 0.00 0.00 0.00 50 1010.1
20260507193009 12 340 3.2 8.0 0.00 0.00 0.00 49 1010.2
20260507192948 12 272 3.2 9.7 0.00 0.00 0.00 48 1010.3
20260507192213 12 348 4.8 14.5 0.00 0.00 0.00 48 1010.4
20260507191434 12 268 4.8 16.1 0.00 0.00 0.00 47 1010.4
20260507190904 12 300 4.8 11.3 0.00 0.00 0.00 47 1010.4
20260507190351 12 302 3.2 11.3 0.00 0.00 0.00 48 1010.4
20260507185855 12 5 4.8 9.7 0.00 0.00 0.00 47 1010.4
20260507185318 12 15 3.2 9.7 0.00 0.00 0.00 47 1010.4
20260507184756 12 309 3.2 8.0 0.00 0.00 0.00 47 1010.5
20260507184216 12 313 3.2 14.5 0.00 0.00 0.00 47 1010.5
20260507183657 12 321 3.2 14.5 0.00 0.00 0.00 48 1010.5
20260507183200 12 284 4.8 11.3 0.00 0.00 0.00 46 1010.5
20260507182639 12 268 4.8 11.3 0.00 0.00 0.00 46 1010.6
20260507182122 12 287 4.8 27.4 0.00 0.00 0.00 46 1010.6
20260507181622 12 255 4.8 27.4 0.00 0.00 0.00 48 1010.6
20260507181048 12 207 3.2 17.7 0.00 0.00 0.00 50 1010.6
20260507180544 12 263 4.8 17.7 0.00 0.00 0.00 49 1010.5
20260507180048 12 315 4.8 11.3 0.00 0.00 0.00 49 1010.6
20260507175535 12 20 4.8 9.7 0.00 0.00 0.00 49 1010.5
20260507175036 12 296 3.2 19.3 0.00 0.00 0.00 49 1010.5
20260507174508 12 284 3.2 19.3 0.00 0.00 0.00 49 1010.7
20260507173951 12 250 3.2 14.5 0.00 0.00 0.00 49 1010.6
20260507173420 12 308 3.2 17.7 0.00 0.00 0.00 50 1010.8
20260507173336 12 39 3.2 17.7 0.00 0.00 0.00 48 1010.8
20260507172551 12 266 4.8 16.1 0.00 0.00 0.00 52 1010.7
20260507171815 12 278 6.4 16.1 0.00 0.00 0.00 51 1010.8
20260507171245 12 310 4.8 17.7 0.00 0.00 0.00 50 1010.6
20260507170714 12 336 4.8 17.7 0.00 0.00 0.00 48 1010.6
20260507170206 12 289 3.2 9.7 0.00 0.00 0.00 49 1010.6
20260507165704 13 317 3.2 6.4 0.00 0.00 0.00 48 1010.6
20260507165136 12 300 3.2 9.7 0.00 0.00 0.00 50 1010.6
20260507164636 12 298 3.2 9.7 0.00 0.00 0.00 50 1010.8
20260507164136 13 344 3.2 11.3 0.00 0.00 0.00 51 1010.6
20260507163606 13 311 3.2 11.3 0.00 0.00 0.00 49 1010.8
20260507163030 13 231 3.2 8.0 0.00 0.00 0.00 51 1010.7
20260507162502 12 220 3.2 17.7 0.00 0.00 0.00 50 1010.6
20260507161958 12 326 3.2 17.7 0.00 0.00 0.00 49 1010.6
20260507161458 12 325 3.2 17.7 0.00 0.00 0.00 52 1010.5
20260507160956 13 306 3.2 12.9 0.00 0.00 0.00 52 1010.7
20260507160413 13 276 1.6 8.0 0.00 0.00 0.00 54 1010.7
20260507155856 13 274 1.6 8.0 0.00 0.00 0.00 52 1010.8
20260507155346 13 251 1.6 6.4 0.00 0.00 0.00 55 1010.8
20260507154821 12 245 1.6 6.4 0.00 0.00 0.00 52 1010.7
20260507154304 12 246 1.6 4.8 0.00 0.00 0.00 57 1010.8
20260507153736 12 242 1.6 6.4 0.00 0.00 0.00 57 1010.5
20260507153139 11 238 3.2 8.0 0.00 0.00 0.00 58 1010.7
20260507152642 11 332 1.6 8.0 0.00 0.00 0.00 59 1010.7
20260507152108 11 303 1.6 8.0 0.00 0.00 0.00 57 1010.8
20260507151559 11 303 1.6 9.7 0.00 0.00 0.00 56 1010.8
20260507151048 12 236 1.6 9.7 0.00 0.00 0.00 57 1010.8
20260507150553 12 315 1.6 6.4 0.00 0.00 0.00 56 1010.8
20260507150239 12 263 1.6 6.4 0.00 0.00 0.00 59 1010.7
20260507145500 11 277 1.6 6.4 0.00 0.00 0.00 60 1010.6
20260507144946 11 277 0.0 6.4 0.00 0.00 0.00 61 1010.6
20260507144418 11 315 1.6 8.0 0.00 0.00 0.00 61 1010.8
20260507143836 11 315 1.6 8.0 0.00 0.00 0.00 62 1010.7
20260507143314 11 302 0.0 6.4 0.00 0.00 0.00 64 1010.7
20260507142806 11 299 0.0 6.4 0.00 0.00 0.00 64 1010.8
20260507142306 11 299 1.6 6.4 0.00 0.00 0.00 61 1010.7
20260507141736 11 299 1.6 6.4 0.00 0.00 0.00 62 1010.7
20260507141153 11 298 0.0 6.4 0.00 0.00 0.00 64 1010.8
20260507140834 11 298 1.6 6.4 0.00 0.00 0.00 64 1010.8
20260507140022 11 296 0.0 6.4 0.00 0.00 0.00 62 1010.8
20260507135444 10 296 0.0 0.0 0.00 0.00 0.00 63 1011.0
20260507135139 10 296 0.0 0.0 0.00 0.00 0.00 67 1010.8
20260507134333 10 296 0.0 4.8 0.00 0.00 0.00 67 1011.0
20260507133753 10 309 0.0 9.7 0.00 0.00 0.00 69 1011.0
20260507133228 10 269 1.6 8.0 0.00 0.00 0.00 70 1011.1
20260507132726 10 269 0.0 8.0 0.00 0.00 0.00 69 1011.0
20260507132156 10 262 0.0 3.2 0.00 0.00 0.00 71 1010.8
20260507131607 10 264 0.0 3.2 0.00 0.00 0.00 73 1010.8
20260507131052 9 264 0.0 3.2 0.00 0.00 0.00 74 1011.0
20260507130555 9 264 0.0 0.0 0.00 0.00 0.00 75 1010.7
20260507130008 9 264 0.0 3.2 0.00 0.00 0.00 76 1010.8
20260507125713 9 264 0.0 3.2 0.00 0.00 0.00 75 1010.8
20260507124944 8 263 0.0 8.0 0.00 0.00 0.00 74 1010.7
20260507124639 8 263 0.0 8.0 0.00 0.00 0.00 75 1010.7
20260507123851 8 180 0.0 0.0 0.00 0.00 0.00 75 1010.7
20260507123339 8 180 0.0 6.4 0.00 0.00 0.00 75 1011.0
20260507122814 8 178 0.0 6.4 0.00 0.00 0.00 75 1010.7
20260507122309 8 165 0.0 0.0 0.00 0.00 0.00 76 1010.6
20260507122235 8 165 0.0 0.0 0.00 0.00 0.00 77 1010.7
20260507121151 7 165 0.0 3.2 0.00 0.00 0.00 78 1010.6
20260507120602 7 134 0.0 4.8 0.00 0.00 0.00 78 1010.5
20260507120038 7 134 1.6 4.8 0.00 0.00 0.00 78 1010.4
20260507115538 7 134 1.6 4.8 0.00 0.00 0.00 79 1010.4
20260507115231 7 134 0.0 1.6 0.00 0.00 0.00 81 1010.4
20260507114420 6 134 0.0 3.2 0.00 0.00 0.00 82 1010.3
20260507113905 6 134 0.0 4.8 0.00 0.00 0.00 83 1010.4
20260507113615 6 134 0.0 4.8 0.00 0.00 0.00 83 1010.5
20260507112858 6 134 0.0 0.0 0.00 0.00 0.00 84 1010.4
20260507112307 6 134 0.0 0.0 0.00 0.00 0.00 84 1010.3
20260507111718 6 134 0.0 0.0 0.00 0.00 0.00 84 1010.3
20260507111129 6 134 0.0 4.8 0.00 0.00 0.00 84 1010.3
20260507110557 6 134 1.6 4.8 0.00 0.00 0.00 84 1010.0
20260507110004 6 134 1.6 4.8 0.00 0.00 0.00 85 1010.0
20260507105431 6 134 1.6 4.8 0.00 0.00 0.00 85 1009.9
20260507104901 5 134 1.6 6.4 0.00 0.00 0.00 85 1009.8
20260507104401 5 134 1.6 6.4 0.00 0.00 0.00 85 1009.8
20260507103827 5 134 1.6 6.4 0.00 0.03 0.00 86 1009.8
20260507103521 5 134 1.6 4.8 0.00 0.03 0.00 86 1009.7
20260507102753 5 134 1.6 4.8 0.00 0.03 0.00 86 1009.7
20260507102449 5 134 1.6 6.4 0.00 0.03 0.00 86 1009.7
20260507101922 5 134 3.2 6.4 0.00 0.03 0.00 86 1009.7
20260507101201 5 134 3.2 6.4 0.00 0.03 0.00 86 1009.8
20260507100630 5 134 3.2 6.4 0.00 0.03 0.00 86 1009.7
20260507100350 5 134 3.2 6.4 0.00 0.03 0.00 86 1009.7
20260507095837 5 134 3.2 6.4 0.00 0.03 0.00 86 1009.7
20260507095308 5 134 3.2 6.4 0.00 0.03 0.00 86 1009.7
20260507094537 5 134 3.2 6.4 0.00 0.05 0.00 86 1009.7
20260507094006 5 134 3.2 6.4 0.00 0.05 0.00 86 1009.7
20260507093503 5 134 3.2 8.0 0.00 0.08 0.00 86 1009.6
20260507092956 5 134 3.2 8.0 0.00 0.08 0.00 86 1009.6
20260507092720 5 134 3.2 6.4 0.00 0.10 0.00 86 1009.7
20260507091937 5 134 4.8 6.4 0.00 0.10 0.00 86 1009.7
20260507091410 5 134 4.8 6.4 0.00 0.10 0.00 86 1009.7
20260507091133 5 134 4.8 6.4 0.00 0.10 0.00 87 1009.8
20260507090827 5 134 4.8 8.0 0.00 0.10 0.00 86 1009.7
20260507085816 5 134 4.8 8.0 0.00 0.10 0.00 87 1009.8
20260507085316 5 134 4.8 6.4 0.00 0.10 0.00 87 1009.7
20260507084754 5 134 3.2 8.0 0.00 0.10 0.00 87 1009.8
20260507084226 5 134 1.6 8.0 0.00 0.13 0.00 87 1009.8
20260507083727 5 134 0.0 0.0 0.00 0.13 0.00 87 1009.8
20260507083628 5 134 0.0 0.0 0.00 0.15 0.00 87 1009.8
20260507082556 5 134 0.0 0.0 0.00 0.20 0.00 86 1009.8
20260507082037 5 134 0.0 0.0 0.00 0.20 0.00 86 1009.8
20260507081525 5 134 0.0 0.0 0.00 0.23 0.00 86 1009.9
20260507081016 5 134 0.0 0.0 0.00 0.25 0.00 86 1009.8
20260507080652 5 134 0.0 0.0 0.00 0.25 0.00 86 1009.8
20260507075853 5 134 0.0 4.8 0.00 0.28 0.00 86 1009.8
20260507075527 5 134 0.0 4.8 0.00 0.28 0.00 85 1009.9
20260507074729 5 134 1.6 6.4 0.00 0.30 0.00 85 1009.8
20260507074207 5 134 4.8 8.0 0.00 0.30 0.00 85 1009.8
20260507073710 5 134 4.8 8.0 0.00 0.33 0.00 85 1009.8
20260507073405 5 133 4.8 8.0 0.00 0.36 0.00 85 1009.9
20260507072646 5 132 4.8 8.0 0.00 0.36 0.00 85 1009.8
20260507072116 5 132 4.8 6.4 0.00 0.36 0.00 85 1009.9
20260507071536 5 132 4.8 8.0 0.00 0.36 0.00 85 1009.9
20260507071017 5 132 4.8 8.0 0.00 0.38 0.00 85 1010.0
20260507070441 5 132 4.8 8.0 0.00 0.38 0.00 86 1010.1
20260507070142 5 132 4.8 6.4 0.00 0.38 0.00 86 1010.1
20260507065425 5 131 4.8 6.4 0.00 0.38 0.00 86 1010.1
20260507064852 5 130 4.8 6.4 0.00 0.38 0.00 87 1010.2
20260507064342 5 130 4.8 6.4 0.00 0.38 0.00 87 1010.2
20260507063835 5 130 4.8 6.4 0.00 0.41 0.00 87 1010.2
20260507063308 5 130 4.8 6.4 0.00 0.41 0.00 87 1010.3
20260507062753 5 130 4.8 6.4 0.00 0.41 0.00 87 1010.3
20260507062250 5 130 4.8 6.4 0.00 0.41 0.00 87 1010.4
20260507061725 5 130 4.8 6.4 0.00 0.41 0.00 87 1010.5
20260507061223 5 130 4.8 6.4 0.00 0.43 0.00 87 1010.5
20260507060723 5 130 4.8 6.4 0.00 0.43 0.00 87 1010.5
20260507060147 5 130 4.8 6.4 0.00 0.43 0.00 86 1010.5
20260507055635 5 130 4.8 6.4 0.00 0.43 0.00 86 1010.6
20260507055123 5 130 4.8 6.4 0.00 0.43 0.00 86 1010.6
20260507054622 5 130 3.2 6.4 0.00 0.46 0.00 85 1010.6
20260507054058 5 130 3.2 6.4 0.00 0.46 0.00 85 1010.6
20260507053549 5 130 3.2 6.4 0.00 0.48 0.00 84 1010.7
20260507053050 5 130 3.2 6.4 0.00 0.48 0.00 84 1010.7
20260507052521 5 130 4.8 9.7 0.00 0.51 0.00 84 1010.8
20260507051945 5 129 4.8 9.7 0.00 0.53 0.00 84 1010.7
20260507051636 6 129 4.8 6.4 0.00 0.53 0.00 84 1011.0
20260507050909 6 78 3.2 6.4 0.00 0.56 0.00 84 1011.1
20260507050413 6 78 3.2 6.4 0.00 0.56 0.00 83 1011.2
20260507045831 6 78 3.2 6.4 0.00 0.56 0.00 83 1011.2
20260507045306 6 78 3.2 6.4 0.00 0.56 0.00 83 1011.1
20260507044803 6 77 3.2 6.4 0.00 0.56 0.00 82 1011.1
20260507044307 6 75 3.2 8.0 0.00 0.58 0.00 82 1011.1
20260507043731 6 340 3.2 6.4 0.00 0.58 0.00 82 1011.1
20260507043431 6 338 1.6 4.8 0.00 0.58 0.00 82 1011.1
20260507042903 6 338 0.0 3.2 0.00 0.58 0.00 82 1011.2
20260507042130 6 338 0.0 3.2 0.00 0.61 0.00 82 1011.2
20260507041557 6 338 0.0 0.0 0.00 0.61 0.00 82 1011.2
20260507041031 6 337 0.0 0.0 0.00 0.64 0.00 82 1011.3
20260507040509 6 337 0.0 0.0 0.00 0.66 0.00 83 1011.4